This is the latest recevied weather packets stored in our database for station/object KN6ETB-1. If no packets are shown the sender has not sent any weather packets the latest 10 day(s).
| Time | Temp. | Humidity | Pressure | Rain* | Wind** | Luminosity | Snow |
|---|---|---|---|---|---|---|---|
| 1777826767 | 15° C | 74% | 1008.9 hPa | 0 mm | - | 235 W/m² | - |
| 1777826464 | 15° C | 75% | 1009 hPa | 0 mm | - | 227 W/m² | - |
| 1777826161 | 14.44° C | 75% | 1008.8 hPa | 0 mm | - | 236 W/m² | - |
| 1777825858 | 14.44° C | 75% | 1009 hPa | 0 mm | - | 206 W/m² | - |
| 1777825555 | 14.44° C | 75% | 1009.1 hPa | 0 mm | - | 201 W/m² | - |
| 1777825253 | 14.44° C | 75% | 1009 hPa | 0 mm | - | 196 W/m² | - |
| 1777824950 | 13.89° C | 75% | 1008.9 hPa | 0 mm | - | 189 W/m² | - |
| 1777824646 | 13.89° C | 76% | 1008.9 hPa | 0 mm | - | 181 W/m² | - |
| 1777824344 | 13.89° C | 76% | 1008.9 hPa | 0 mm | - | 190 W/m² | - |
| 1777824039 | 13.89° C | 76% | 1008.7 hPa | 0 mm | - | 191 W/m² | - |
| 1777823736 | 13.89° C | 77% | 1008.7 hPa | 0 mm | - | 180 W/m² | - |
| 1777823433 | 13.89° C | 77% | 1008.8 hPa | 0 mm | - | 171 W/m² | - |
| 1777823130 | 13.89° C | 78% | 1008.6 hPa | 0 mm | - | 154 W/m² | - |
| 1777822827 | 13.33° C | 78% | 1008.6 hPa | 0 mm | - | 132 W/m² | - |
| 1777822526 | 13.33° C | 79% | 1008.5 hPa | 0 mm | - | 123 W/m² | - |
| 1777822223 | 13.33° C | 79% | 1008.6 hPa | 0 mm | - | 116 W/m² | - |
| 1777821920 | 13.33° C | 79% | 1008.6 hPa | 0 mm | - | 111 W/m² | - |
| 1777821618 | 13.33° C | 79% | 1008.3 hPa | 0 mm | - | 102 W/m² | - |
| 1777821316 | 13.33° C | 79% | 1008.5 hPa | 0 mm | - | 98 W/m² | - |
| 1777821012 | 13.33° C | 80% | 1008.5 hPa | 0 mm | - | 95 W/m² | - |
| 1777820709 | 13.33° C | 80% | 1008.4 hPa | 0 mm | - | 95 W/m² | - |
| 1777820405 | 13.33° C | 80% | 1008.3 hPa | 0 mm | - | 97 W/m² | - |
| 1777820103 | 13.33° C | 81% | 1008.2 hPa | 0 mm | - | 98 W/m² | - |
| 1777819799 | 13.33° C | 80% | 1008.5 hPa | 0 mm | - | 95 W/m² | - |
| 1777819497 | 12.78° C | 81% | 1008.6 hPa | 0 mm | - | 97 W/m² | - |
* Rain latest hour (hover to see other rain measurements)
** Current wind speed in m/s (hover to see current wind gust speed)